Weather History for KBID - October, 2013

Change the Weather History Date:

Tuesday, October 22, 2013

  Actual Average Record
Temperature  
Mean Temperature 60 °F -  
Max Temperature 66 °F 59 °F 72 °F (1979)
Min Temperature 53 °F 47 °F 35 °F (1960)
Degree Days  
Heating Degree Days 6    
Growing Degree Days 10 (Base 50)    
Moisture  
Dew Point 50 °F    
Average Humidity 70    
Maximum Humidity 82    
Minimum Humidity 64    
Precipitation  
Precipitation 0.00 in - - ()
Sea Level Pressure  
Sea Level Pressure 29.84 in    
Wind  
Wind Speed 10 mph (SW)    
Max Wind Speed 17 mph    
Max Gust Speed 21 mph    
Visibility 10 miles    
Events      
Averages and records for this station are not official NWS values.
T = Trace of Precipitation, MM = Missing Value Source: NWS Daily Summary

Daily Weather History Graph

Daily Weather History Graph

Search for Another Location

Airport or City:

Trip Planner

Search our weather history database for the weather conditions in past years. The results will help you decide how hot, cold, wet, or windy it might be!

Date:

Astronomy

Oct. 22, 2013 Rise Set
Actual Time 7:06 AM EDT 5:54 PM EDT
Civil Twilight 6:37 AM EDT 6:22 PM EDT
Nautical Twilight 6:05 AM EDT 6:54 PM EDT
Astronomical Twilight 5:33 AM EDT 7:26 PM EDT
Moon 8:31 PM EDT (10/22) 10:33 AM EDT (10/22)
Length of Visible Light 11h 44m
Length of Day
10h 48m
Waning Gibbous, 87% of the Moon is Illuminated
Oct 22
Waning Gibbous
Oct 26
Last Quarter
Nov 3
New
Nov 10
First Quarter
Nov 17
Full

Hourly Weather History & Observations

Time (EDT) Temp. Dew Point Humidity Pressure Visibility Wind Dir Wind Speed Gust Speed Precip Events Conditions
12:15 AM 57.2 °F 46.4 °F 67% 30.01 in 10.0 mi SW 9.2 mph - N/A   Clear
12:35 AM 57.2 °F 46.4 °F 67% 30.01 in 10.0 mi SW 6.9 mph - N/A   Clear
12:55 AM 57.2 °F 46.4 °F 67% 30.00 in 10.0 mi SW 6.9 mph - N/A   Clear
1:15 AM 57.2 °F 46.4 °F 67% 30.00 in 10.0 mi SW 8.1 mph - N/A   Clear
1:35 AM 57.2 °F 46.4 °F 67% 30.00 in 10.0 mi SW 8.1 mph - N/A   Clear
1:55 AM 57.2 °F 46.4 °F 67% 29.99 in 10.0 mi SW 9.2 mph - N/A   Clear
2:15 AM 57.2 °F 48.2 °F 72% 29.99 in 10.0 mi SW 9.2 mph - N/A   Clear
2:35 AM 57.2 °F 48.2 °F 72% 29.98 in 10.0 mi SW 10.4 mph - N/A   Clear
2:55 AM 57.2 °F 48.2 °F 72% 29.98 in 10.0 mi SW 9.2 mph - N/A   Clear
3:15 AM 57.2 °F 48.2 °F 72% 29.97 in 10.0 mi SW 9.2 mph - N/A   Clear
3:35 AM 57.2 °F 48.2 °F 72% 29.95 in 10.0 mi SW 8.1 mph - N/A   Clear
3:55 AM 57.2 °F 48.2 °F 72% 29.94 in 10.0 mi SW 6.9 mph - N/A   Clear
4:15 AM 55.4 °F 48.2 °F 77% 29.94 in 10.0 mi SW 5.8 mph - N/A   Clear
4:35 AM 55.4 °F 48.2 °F 77% 29.94 in 10.0 mi SW 6.9 mph - N/A   Clear
4:55 AM 55.4 °F 48.2 °F 77% 29.94 in 10.0 mi SW 8.1 mph - N/A   Clear
5:15 AM 57.2 °F 48.2 °F 72% 29.93 in 10.0 mi SW 6.9 mph - N/A   Clear
5:35 AM 57.2 °F 48.2 °F 72% 29.92 in 10.0 mi SW 6.9 mph - N/A   Clear
5:55 AM 57.2 °F 48.2 °F 72% 29.92 in 10.0 mi SW 6.9 mph - N/A   Scattered Clouds
6:15 AM 57.2 °F 48.2 °F 72% 29.91 in 10.0 mi SSW 6.9 mph - N/A   Overcast
6:35 AM 57.2 °F 48.2 °F 72% 29.91 in 10.0 mi SSW 8.1 mph - N/A   Scattered Clouds
6:55 AM 57.2 °F 48.2 °F 72% 29.91 in 10.0 mi SSW 6.9 mph - N/A   Partly Cloudy
7:15 AM 57.2 °F 50.0 °F 77% 29.90 in 10.0 mi SSW 6.9 mph - N/A   Partly Cloudy
7:35 AM 57.2 °F 50.0 °F 77% 29.90 in 10.0 mi SSW 6.9 mph - N/A   Clear
7:55 AM 57.2 °F 51.8 °F 82% 29.89 in 10.0 mi SSW 5.8 mph - N/A   Clear
8:15 AM 57.2 °F 51.8 °F 82% 29.89 in 10.0 mi SSW 5.8 mph - N/A   Clear
8:35 AM 60.8 °F 53.6 °F 77% 29.89 in 10.0 mi South 9.2 mph - N/A   Clear
8:55 AM 60.8 °F 53.6 °F 77% 29.89 in 10.0 mi SSW 9.2 mph - N/A   Clear
9:15 AM 62.6 °F 53.6 °F 72% 29.88 in 10.0 mi SSW 9.2 mph - N/A   Clear
9:35 AM 62.6 °F 53.6 °F 72% 29.87 in 10.0 mi SSW 9.2 mph - N/A   Clear
9:55 AM 62.6 °F 51.8 °F 68% 29.86 in 10.0 mi South 10.4 mph - N/A   Clear
10:15 AM 62.6 °F 53.6 °F 72% 29.86 in 10.0 mi SSW 11.5 mph - N/A   Clear
10:35 AM 64.4 °F 51.8 °F 64% 29.85 in 10.0 mi SSW 8.1 mph - N/A   Clear
10:55 AM 64.4 °F 51.8 °F 64% 29.84 in 10.0 mi SSW 11.5 mph - N/A   Clear
11:15 AM 62.6 °F 53.6 °F 72% 29.84 in 10.0 mi SW 12.7 mph - N/A   Scattered Clouds
11:35 AM 64.4 °F 51.8 °F 64% 29.83 in 10.0 mi SSW 10.4 mph - N/A   Partly Cloudy
11:55 AM 64.4 °F 53.6 °F 68% 29.82 in 10.0 mi SSW 12.7 mph - N/A   Clear
12:15 PM 64.4 °F 53.6 °F 68% 29.83 in 10.0 mi SW 12.7 mph - N/A   Mostly Cloudy
12:35 PM 64.4 °F 51.8 °F 64% 29.82 in 10.0 mi SW 15.0 mph - N/A   Overcast
12:55 PM 64.4 °F 53.6 °F 68% 29.81 in 10.0 mi SW 13.8 mph 19.6 mph N/A   Overcast
1:15 PM 64.4 °F 53.6 °F 68% 29.80 in 10.0 mi SW 12.7 mph 20.7 mph N/A   Scattered Clouds
1:35 PM 66.2 °F 53.6 °F 64% 29.79 in 10.0 mi SW 15.0 mph - N/A   Clear
1:55 PM 64.4 °F 51.8 °F 64% 29.77 in 10.0 mi SSW 15.0 mph 19.6 mph N/A   Clear
2:15 PM 64.4 °F 51.8 °F 64% 29.76 in 10.0 mi SW 13.8 mph - N/A   Clear
2:35 PM 64.4 °F 51.8 °F 64% 29.76 in 10.0 mi SW 12.7 mph - N/A   Clear
2:55 PM 64.4 °F 51.8 °F 64% 29.76 in 10.0 mi SW 15.0 mph - N/A   Clear
3:15 PM 64.4 °F 51.8 °F 64% 29.76 in 10.0 mi SW 17.3 mph - N/A   Clear
3:35 PM 64.4 °F 51.8 °F 64% 29.76 in 10.0 mi SW 11.5 mph - N/A   Mostly Cloudy
3:55 PM 64.4 °F 51.8 °F 64% 29.76 in 10.0 mi WSW 13.8 mph - N/A   Mostly Cloudy
4:15 PM 62.6 °F 51.8 °F 68% 29.76 in 10.0 mi SW 16.1 mph 20.7 mph N/A   Scattered Clouds
4:35 PM 62.6 °F 51.8 °F 68% 29.75 in 10.0 mi SW 15.0 mph - N/A   Partly Cloudy
4:55 PM 62.6 °F 51.8 °F 68% 29.75 in 10.0 mi SW 15.0 mph - N/A   Mostly Cloudy
5:15 PM 62.6 °F 51.8 °F 68% 29.75 in 10.0 mi WSW 15.0 mph - N/A   Overcast
5:35 PM 62.6 °F 51.8 °F 68% 29.74 in 10.0 mi WSW 12.7 mph - N/A   Overcast
5:55 PM 62.6 °F 51.8 °F 68% 29.74 in 10.0 mi SW 13.8 mph - N/A   Overcast
6:15 PM 62.6 °F 53.6 °F 72% 29.74 in 10.0 mi SW 12.7 mph - N/A   Overcast
6:35 PM 62.6 °F 53.6 °F 72% 29.74 in 10.0 mi WSW 12.7 mph - N/A   Overcast
6:55 PM 62.6 °F 53.6 °F 72% 29.74 in 10.0 mi WSW 12.7 mph - N/A   Scattered Clouds
7:15 PM 60.8 °F 53.6 °F 77% 29.74 in 10.0 mi WSW 12.7 mph - N/A   Clear
7:35 PM 60.8 °F 53.6 °F 77% 29.75 in 10.0 mi WSW 12.7 mph - N/A   Clear
7:55 PM 60.8 °F 53.6 °F 77% 29.75 in 10.0 mi West 9.2 mph - N/A   Clear
8:15 PM 60.8 °F 51.8 °F 72% 29.74 in 10.0 mi West 9.2 mph - N/A   Clear
8:35 PM 60.8 °F 50.0 °F 68% 29.75 in 10.0 mi West 9.2 mph - N/A   Clear
8:55 PM 60.8 °F 50.0 °F 68% 29.76 in 10.0 mi WNW 8.1 mph - N/A   Clear
9:15 PM 59.0 °F 50.0 °F 72% 29.76 in 10.0 mi WNW 8.1 mph - N/A   Clear
9:35 PM 59.0 °F 48.2 °F 67% 29.77 in 10.0 mi WNW 6.9 mph - N/A   Clear
9:55 PM 57.2 °F 48.2 °F 72% 29.77 in 10.0 mi NW 6.9 mph - N/A   Clear
10:15 PM 57.2 °F 46.4 °F 67% 29.77 in 10.0 mi WNW 6.9 mph - N/A   Clear
10:35 PM 57.2 °F 46.4 °F 67% 29.77 in 10.0 mi NNW 9.2 mph - N/A   Clear
10:55 PM 57.2 °F 46.4 °F 67% 29.78 in 10.0 mi NNW 9.2 mph - N/A   Clear
11:15 PM 55.4 °F 44.6 °F 67% 29.79 in 10.0 mi North 11.5 mph - N/A   Clear
11:35 PM 53.6 °F 44.6 °F 72% 29.79 in 10.0 mi North 10.4 mph - N/A   Clear
11:55 PM 53.6 °F 42.8 °F 67% 29.79 in 10.0 mi NNE 11.5 mph - N/A   Clear